Location: Borderline Observatory
(42.7345°N, 72.8696°W)
Time: 07:24:53
(UTC-05:00)

Daily predictions for brighter satellites

Satellite Brightness Start Highest point End
(mag) Time Altitude Azimuth Time Altitude Azimuth Time Altitude Azimuth
CSL-04 Rocket 4.0 16:38:06 10° S 16:43:34 78° WSW 16:49:08 10° NNW
SL-8 Rocket 4.0 16:38:08 10° N 16:44:15 61° E 16:50:19 10° SSE
Cosmos 1455 Rocket 3.7 16:40:32 10° N 16:44:37 36° ENE 16:48:42 10° SE
EO 1 Del DPAF 4.4 16:44:52 10° N 16:48:37 46° WNW 16:52:19 10° SW
CSL-04 Debris 4.4 16:43:32 10° SSE 16:48:55 81° WSW 16:54:21 10° NNW
IDEFIX/ARIANE 42P 2.9 16:44:22 10° SE 16:49:16 44° ENE 16:54:11 10° N
CZ-3B DEB 2.0 16:50:54 10° SW 16:54:10 67° SE 17:02:24 10° NE
AQUARIUS 4.4 16:51:12 10° SE 16:55:29 47° ENE 16:59:49 10° N
Cosmos 2366 rocket 4.1 16:50:22 10° N 16:56:38 56° ENE 17:02:48 10° SSE
Cosmos 1844 Rocket 2.9 16:51:36 10° SSW 16:57:11 77° WNW 17:02:51 10° NNE
Cosmos 1959 Rocket 4.5 16:52:02 10° N 16:58:13 66° E 17:04:24 10° SSE
Thor Agena Rocket 3.8 16:53:46 10° NNE 16:58:52 51° E 17:03:58 10° S
Cosmos 2218 Rocket 4.0 16:57:49 10° N 17:04:08 73° E 17:10:18 10° SSE
Cosmos 2251 Rocket 3.5 17:00:30 10° NNW 17:05:53 86° ENE 17:11:12 10° SSE
Cosmos 1812 2.8 17:02:44 10° S 17:06:30 55° E 17:10:17 10° NNE
Cosmos 2181 Rocket 4.5 17:01:47 10° SSW 17:08:06 68° W 17:14:33 10° N
CORIOLIS 4.2 17:04:36 10° SSE 17:09:55 62° ENE 17:15:14 10° N
SL-27 R/B 3.4 17:06:39 10° NNW 17:10:15 54° WSW 17:13:47 10° S
CZ-2C R/B 4.5 17:06:40 10° N 17:10:59 52° WNW 17:15:22 10° SSW
Meteor 1-18 Rocket 4.2 17:12:12 10° S 17:17:49 75° E 17:23:35 10° NNE
Okean 1 3.4 17:14:43 10° S 17:18:40 55° E 17:22:39 10° NNE
Cosmos 1844 4.0 17:14:57 10° SSW 17:20:28 68° WNW 17:26:02 10° NNE
Intercosmos 25 4.1 17:18:05 10° NNE 17:20:35 20° ENE 17:23:06 10° SE
Abrixas 3.0 17:18:50 10° NW 17:21:40 40° NNE 17:23:15 21° ENE
Timation 2 Rocket 4.4 17:16:37 10° NNW 17:23:14 50° ENE 17:29:54 10° SE
Cosmos 2297 4.2 17:18:43 10° S 17:23:53 38° ESE 17:28:22 13° NE
Cosmos 1346 Rocket 2.9 17:25:52 10° S 17:29:37 47° E 17:33:15 11° NNE
Cosmos 375 4.3 17:27:29 10° NW 17:32:01 89° NE 17:35:52 10° SE
ISS -1.6 17:30:50 10° WNW 17:33:32 23° NNW 17:35:07 17° NNE
Cosmos 2278 Rocket 2.3 17:30:02 10° SSW 17:35:42 83° WNW 17:41:23 10° NNE
COSMO-SKYMED 1 2.9 17:33:21 12° NNE 17:37:13 42° E 17:41:20 10° S
SMAP 3.6 17:34:48 10° S 17:39:23 61° W 17:44:01 10° NNW
USA 234 3.4 17:34:55 14° NE 17:40:37 71° NW 17:47:06 10° WSW
SL-24 DEB 4.2 17:36:47 10° N 17:41:33 76° E 17:46:14 10° S
BREEZE M DEB (TANK) 3.4 17:45:19 10° NW 17:48:37 49° NNE 17:53:28 21° E
SL-8 R/B 3.8 17:45:19 10° WSW 17:50:04 68° NNW 17:52:28 29° NE
Genesis I 3.5 17:47:17 10° NW 17:51:12 66° WSW 17:55:04 10° SSE
Cosmos 2056 Rocket 4.4 17:47:26 10° SSE 17:51:52 27° E 17:52:16 26° E
NOSS 3-4 (A) 4.1 17:46:28 10° NNW 17:53:03 43° NE 17:57:34 21° ESE
NOSS 3-4 (C) 4.1 17:46:34 10° NNW 17:53:09 43° NE 17:57:36 21° ESE
Cosmos 1536 Rocket 4.4 17:50:41 10° SSW 17:55:02 52° W 17:59:26 10° N
SL-24 R/B - RUBIN 2 4.5 17:48:58 10° SSW 17:55:17 82° ESE 18:00:15 20° NE
Nadezhda 3 Rocket 3.9 17:50:13 10° S 17:56:23 75° E 18:02:40 10° N
Cosmos 1833 Rocket 2.6 17:52:11 10° NNW 17:57:48 62° ENE 18:03:21 10° SE
Cosmos 1025 Rocket 3.5 17:55:02 10° SSE 17:59:05 39° E 17:59:27 38° E
NOSS 3-3 (A) 4.3 17:54:07 10° SW 18:00:17 65° NW 18:05:35 17° NNE
NOSS 3-3 (C) 4.3 17:54:13 10° SW 18:00:23 66° NW 18:05:40 17° NNE
Cosmos 2082 Rocket 2.1 17:54:51 10° NNW 18:00:32 76° ENE 18:06:13 10° SSE
Meteor 1-19 Rocket 4.3 17:55:07 10° S 18:00:48 61° E 18:06:35 10° NNE
Cosmos 921 Rocket 2.9 17:57:27 10° S 18:01:39 67° ESE 18:03:30 32° NNE
EP 1 4.4 18:00:16 10° SW 18:02:42 68° W 18:02:42 68° W
YAOGAN 1 4.3 17:59:17 10° SSW 18:03:15 35° W 18:07:13 10° NNW
MSX 4.3 17:58:23 10° S 18:04:04 62° WSW 18:09:47 10° NNW
Meteor 2-21 Rocket 4.4 17:58:21 10° N 18:04:36 86° E 18:10:45 10° S
CZ-4 R/B 4.1 18:01:34 10° SSW 18:04:52 22° W 18:08:10 10° NW
Cosmos 1624 Rocket 4.5 18:00:27 10° SSE 18:05:10 37° ESE 18:05:36 36° E
Cosmos 1975 4.2 18:01:23 10° NNW 18:05:14 41° W 18:09:01 10° SSW
Cosmos 1743 2.5 18:01:53 10° N 18:05:46 76° E 18:09:37 10° SSE
GRACE-2 4.0 18:03:11 10° S 18:05:48 72° SW 18:05:48 72° SW
GRACE-1 4.0 18:03:36 10° S 18:06:18 72° WSW 18:06:18 72° WSW
Meteor 2-16 Rocket 4.3 18:01:06 10° N 18:07:12 74° E 18:13:17 10° SSE
SKYMED 3 4.5 18:03:45 15° NNE 18:07:19 88° WNW 18:11:40 10° SSW
ATLAS 2AS CENTAUR R/B 4.5 18:00:45 10° NW 18:07:56 38° WSW 18:14:41 10° S
GEOS 3 Rocket 3.5 18:06:32 26° ESE 18:09:23 60° NE 18:14:26 10° NNW
COSMOS 2487 3.6 18:06:33 10° NNW 18:10:01 45° WSW 18:13:27 10° S
Cosmos 1371 Rocket 4.2 18:04:59 10° S 18:10:09 51° ESE 18:11:45 38° NE
Cosmos 1500 4.5 18:06:45 10° NNW 18:10:24 42° W 18:14:02 10° SSW
Cosmos 1484 Rocket 3.2 18:07:55 10° S 18:11:36 58° W 18:15:18 10° NNW
CZ-2C R/B 4.4 18:08:09 10° SSW 18:12:33 31° W 18:17:04 10° NNW
Meteor 1-28 Rocket 3.1 18:15:53 68° ESE 18:15:53 68° ESE 18:19:32 10° S
Meteor 1-13 Rocket 4.4 18:15:00 10° SSW 18:20:39 76° W 18:26:31 10° N
Tiangong 1 2.1 18:17:42 10° WSW 18:19:54 42° SW 18:19:54 42° SW
SKYMED 2 4.2 18:21:59 16° N 18:25:19 56° WNW 18:29:34 10° SSW
ATLAS 3B CENTAUR R/B 4.5 18:07:28 10° WSW 18:25:28 38° SSW 18:31:14 18° SE
Meteor 1-23 Rocket 4.1 18:21:50 10° S 18:27:28 64° E 18:29:14 43° NE
FALCON 9 R/B 3.7 18:09:46 10° WSW 18:32:04 54° S 18:35:31 32° SE
BREEZE-M R/B 3.9 18:24:15 10° WSW 18:33:30 60° NNW 18:34:45 48° NNE
Meteor 2-4 Rocket 3.5 18:31:36 10° S 18:36:59 88° E 18:38:55 41° N
Okean 1-7 Rocket 4.4 18:32:44 10° SSW 18:37:07 50° WNW 18:39:56 21° N
Meteor 2-9 Rocket 3.9 18:32:14 10° N 18:37:42 85° E 18:43:02 10° S
Cosmos 1190 Rocket 4.4 18:37:56 10° NNW 18:41:50 48° N 18:41:50 48° N
Cosmos 1934 Rocket 4.0 18:41:01 10° N 18:47:14 82° W 18:53:31 10° S
NOSS 2-1 (D) 4.5 18:50:29 10° SW 18:53:30 42° W 18:53:30 42° W
NOSS 2-1 (C) 4.5 18:51:09 10° SW 18:54:09 42° W 18:54:09 42° W
BREEZE M DEB (TANK) 4.2 19:05:13 10° WSW 19:08:45 30° W 19:08:45 30° W
USA 234 4.4 19:22:15 31° N 19:22:58 32° NNW 19:28:36 10° WNW
Cosmos 1605 Rocket 4.5 19:20:38 10° NNW 19:26:48 58° W 19:32:50 10° S
CZ-3B DEB 4.1 19:24:10 10° WNW 19:30:05 42° N 19:31:38 40° NNE
